Weather History for Denver Centennial, CO

Change the Weather History Date:

Wednesday, March 5, 2014

  Actual Average Record
Temperature  
Mean Temperature 37 °F -  
Max Temperature 50 °F 47 °F 66 °F (2012)
Min Temperature 23 °F 22 °F 8 °F (2013)
Degree Days  
Heating Degree Days 28    
Month to date heating degree days 164  
Moisture  
Dew Point 25 °F    
Average Humidity 65    
Maximum Humidity 100    
Minimum Humidity 29    
Precipitation  
Precipitation 0.07 in - - ()
Month to date precipitation 0.26  
Year to date precipitation 1.11  
Sea Level Pressure  
Sea Level Pressure 30.12 in    
Wind  
Wind Speed 5 mph (South)    
Max Wind Speed 17 mph    
Max Gust Speed 22 mph    
Visibility 9 miles    
Events Fog , Snow    
Averages and records for this station are not official NWS values.
T = Trace of Precipitation, MM = Missing Value Source: NWS Daily Summary

Daily Weather History Graph

Daily Weather History Graph

Search for Another Location

Airport:

Trip Planner

Search our weather history database for the weather conditions in past years. The results will help you decide how hot, cold, wet, or windy it might be!

Date:

Astronomy

Mar. 05, 2014 Rise Set
Actual Time 6:26 AM MST 5:55 PM MST
Civil Twilight 5:59 AM MST 6:22 PM MST
Nautical Twilight 5:28 AM MST 6:54 PM MST
Astronomical Twilight 4:57 AM MST 7:25 PM MST
Moon 8:54 AM MST (3/5) 11:05 PM MST (3/5)
Length of Visible Light 12h 23m
Length of Day
11h 29m
Waxing Crescent, 24% of the Moon is Illuminated
Mar 5
Waxing Crescent
Mar 8
First Quarter
Mar 16
Full
Mar 23
Last Quarter
Mar 30
New

Hourly Weather History & Observations

Time (MST) Temp. Windchill Dew Point Humidity Pressure Visibility Wind Dir Wind Speed Gust Speed Precip Events Conditions
12:53 AM 30.9 °F 27.5 °F 30.0 °F 96% 30.08 in 0.5 mi NNW 3.5 mph - 0.06 in Fog , Snow Snow
1:11 AM 30.9 °F - 30.0 °F 96% 30.09 in 0.5 mi Calm Calm - 0.01 in Fog , Snow Light Snow
1:41 AM 30.9 °F 24.3 °F 30.0 °F 96% 30.08 in 0.5 mi South 6.9 mph - 0.02 in Snow Light Snow
1:53 AM 30.9 °F 27.5 °F 30.0 °F 96% 30.06 in 4.0 mi South 3.5 mph - 0.02 in Snow Light Snow
2:17 AM 30.0 °F 24.1 °F 28.9 °F 96% 30.08 in 9.0 mi South 5.8 mph - 0.00 in Snow Light Snow
2:31 AM 30.0 °F 25.2 °F 28.9 °F 96% 30.09 in 9.0 mi SW 4.6 mph - 0.00 in Snow Light Snow
2:53 AM 30.9 °F 25.2 °F 28.9 °F 92% 30.07 in 9.0 mi West 5.8 mph - 0.00 in   Overcast
3:53 AM 28.0 °F 20.0 °F 27.0 °F 96% 30.08 in 10.0 mi SW 8.1 mph - N/A   Scattered Clouds
4:53 AM 26.1 °F 21.9 °F 25.0 °F 96% 30.11 in 10.0 mi South 3.5 mph - N/A   Partly Cloudy
5:53 AM 23.0 °F 15.8 °F 21.0 °F 92% 30.14 in 10.0 mi South 5.8 mph - N/A   Partly Cloudy
6:53 AM 25.0 °F 19.3 °F 23.0 °F 92% 30.17 in 10.0 mi SE 4.6 mph - N/A   Partly Cloudy
7:53 AM 27.0 °F 21.6 °F 25.0 °F 92% 30.19 in 10.0 mi South 4.6 mph - N/A   Partly Cloudy
8:53 AM 30.0 °F 23.2 °F 27.0 °F 88% 30.20 in 10.0 mi ESE 6.9 mph - N/A   Partly Cloudy
9:53 AM 37.0 °F 34.5 °F 28.9 °F 73% 30.19 in 10.0 mi SW 3.5 mph - N/A   Partly Cloudy
10:53 AM 39.9 °F 37.8 °F 28.9 °F 65% 30.19 in 10.0 mi SE 3.5 mph - N/A   Partly Cloudy
11:53 AM 41.0 °F 38.0 °F 24.1 °F 51% 30.18 in 10.0 mi SE 4.6 mph - N/A   Partly Cloudy
12:53 PM 44.1 °F 40.8 °F 21.9 °F 42% 30.14 in 10.0 mi SE 5.8 mph - N/A   Partly Cloudy
1:53 PM 46.9 °F - 21.0 °F 36% 30.10 in 10.0 mi Variable 3.5 mph - N/A   Partly Cloudy
2:53 PM 48.0 °F - 21.0 °F 34% 30.09 in 10.0 mi Variable 3.5 mph - N/A   Partly Cloudy
3:53 PM 48.0 °F - 19.0 °F 32% 30.11 in 10.0 mi Calm Calm - N/A   Partly Cloudy
4:53 PM 48.0 °F - 18.0 °F 30% 30.12 in 10.0 mi SE 3.5 mph - N/A   Partly Cloudy
5:53 PM 44.1 °F 41.5 °F 21.9 °F 42% 30.15 in 10.0 mi SSE 4.6 mph - N/A   Partly Cloudy
6:53 PM 42.1 °F 36.6 °F 21.9 °F 45% 30.15 in 10.0 mi SSE 9.2 mph - N/A   Partly Cloudy
7:53 PM 39.9 °F 33.9 °F 21.9 °F 49% 30.15 in 10.0 mi SSE 9.2 mph - N/A   Partly Cloudy
8:53 PM 39.0 °F 31.4 °F 24.1 °F 55% 30.13 in 10.0 mi South 12.7 mph - N/A   Partly Cloudy
9:53 PM 39.9 °F 32.5 °F 21.9 °F 49% 30.10 in 10.0 mi SSW 12.7 mph - N/A   Scattered Clouds
10:53 PM 39.9 °F 33.4 °F 19.9 °F 45% 30.07 in 10.0 mi South 10.4 mph - N/A   Scattered Clouds
11:53 PM 39.0 °F 31.8 °F 17.1 °F 41% 30.06 in 10.0 mi SSW 11.5 mph - N/A   Scattered Clouds